owner,sensor,date,latitude,longitude,air_temperature,qcFlag 
DISL,ioos:station:DISL:MHPA:1,2014-01-01T06:30:00Z,30.6671,-87.9365,6.51,1111122 
DISL,ioos:station:DISL:MHPA:1,2014-01-01T07:00:00Z,30.6671,-87.9365,6.51,1111122 
DISL,ioos:station:DISL:MHPA:1,2014-01-01T07:30:00Z,30.6671,-87.9365,6.452,1111122 
DISL,ioos:station:DISL:MHPA:1,2014-01-01T08:00:00Z,30.6671,-87.9365,6.576,1111122 
DISL,ioos:station:DISL:MHPA:1,2014-01-01T08:30:00Z,30.6671,-87.9365,6.694,1111122 
DISL,ioos:station:DISL:MHPA:1,2014-01-01T09:00:00Z,30.6671,-87.9365,6.789,1111122 
DISL,ioos:station:DISL:MHPA:1,2014-01-01T09:30:00Z,30.6671,-87.9365,6.953,1111122 
DISL,ioos:station:DISL:MHPA:1,2014-01-01T10:00:00Z,30.6671,-87.9365,7.1,1111122 
DISL,ioos:station:DISL:MHPA:1,2014-01-01T10:30:00Z,30.6671,-87.9365,7.34,1111122 
DISL,ioos:station:DISL:MHPA:1,2014-01-01T11:00:00Z,30.6671,-87.9365,7.58,1111122 
DISL,ioos:station:DISL:MHPA:1,2014-01-01T11:30:00Z,30.6671,-87.9365,7.72,1111122 
DISL,ioos:station:DISL:MHPA:1,2014-01-01T12:00:00Z,30.6671,-87.9365,7.7,1111122 
DISL,ioos:station:DISL:MHPA:1,2014-01-01T12:30:00Z,30.6671,-87.9365,7.75,1111122 
DISL,ioos:station:DISL:MHPA:1,2014-01-01T13:00:00Z,30.6671,-87.9365,7.95,1111122 
DISL,ioos:station:DISL:MHPA:1,2014-01-01T13:30:00Z,30.6671,-87.9365,8.19,1111122 
DISL,ioos:station:DISL:MHPA:1,2014-01-01T14:00:00Z,30.6671,-87.9365,8.49,1111122 
DISL,ioos:station:DISL:MHPA:1,2014-01-01T14:30:00Z,30.6671,-87.9365,8.8,1111122 
DISL,ioos:station:DISL:MHPA:1,2014-01-01T15:00:00Z,30.6671,-87.9365,8.73,1111122 
DISL,ioos:station:DISL:MHPA:1,2014-01-01T15:30:00Z,30.6671,-87.9365,9.3,1111122 
DISL,ioos:station:DISL:MHPA:1,2014-01-01T16:00:00Z,30.6671,-87.9365,10.85,1111122 
DISL,ioos:station:DISL:MHPA:1,2014-01-01T16:30:00Z,30.6671,-87.9365,11.46,1111122 
DISL,ioos:station:DISL:MHPA:1,2014-01-01T17:00:00Z,30.6671,-87.9365,12.9,1111122 
DISL,ioos:station:DISL:MHPA:1,2014-01-01T17:30:00Z,30.6671,-87.9365,13.76,1111122 
DISL,ioos:station:DISL:MHPA:1,2014-01-01T18:00:00Z,30.6671,-87.9365,14.24,1111122 
DISL,ioos:station:DISL:MHPA:1,2014-01-01T18:30:00Z,30.6671,-87.9365,14.69,1111122 
DISL,ioos:station:DISL:MHPA:1,2014-01-01T19:00:00Z,30.6671,-87.9365,15.48,1111122 
DISL,ioos:station:DISL:MHPA:1,2014-01-01T19:30:00Z,30.6671,-87.9365,15.93,1111122 
DISL,ioos:station:DISL:MHPA:1,2014-01-01T20:00:00Z,30.6671,-87.9365,15.1,1111122 
DISL,ioos:station:DISL:MHPA:1,2014-01-01T20:30:00Z,30.6671,-87.9365,15.17,1111122 
DISL,ioos:station:DISL:MHPA:1,2014-01-01T21:00:00Z,30.6671,-87.9365,15.12,1111122 
DISL,ioos:station:DISL:MHPA:1,2014-01-01T21:30:00Z,30.6671,-87.9365,15.7,1111122 
DISL,ioos:station:DISL:MHPA:1,2014-01-01T22:00:00Z,30.6671,-87.9365,15.34,1111122 
DISL,ioos:station:DISL:MHPA:1,2014-01-01T22:30:00Z,30.6671,-87.9365,14.34,1111122 
DISL,ioos:station:DISL:MHPA:1,2014-01-01T23:00:00Z,30.6671,-87.9365,13.66,1111122 
DISL,ioos:station:DISL:MHPA:1,2014-01-01T23:30:00Z,30.6671,-87.9365,13.11,1111122 
DISL,ioos:station:DISL:MHPA:1,2014-01-02T00:00:00Z,30.6671,-87.9365,12.62,1111122 
DISL,ioos:station:DISL:MHPA:1,2014-01-02T00:30:00Z,30.6671,-87.9365,12.37,1111122 
DISL,ioos:station:DISL:MHPA:1,2014-01-02T01:00:00Z,30.6671,-87.9365,12.59,1111122 
DISL,ioos:station:DISL:MHPA:1,2014-01-02T01:30:00Z,30.6671,-87.9365,13.52,1111122 
DISL,ioos:station:DISL:MHPA:1,2014-01-02T02:00:00Z,30.6671,-87.9365,12.13,1111122 
DISL,ioos:station:DISL:MHPA:1,2014-01-02T02:30:00Z,30.6671,-87.9365,12.14,1111122 
DISL,ioos:station:DISL:MHPA:1,2014-01-02T03:00:00Z,30.6671,-87.9365,12.37,1111122 
DISL,ioos:station:DISL:MHPA:1,2014-01-02T03:30:00Z,30.6671,-87.9365,13.31,1111122 
DISL,ioos:station:DISL:MHPA:1,2014-01-02T04:00:00Z,30.6671,-87.9365,13.17,1111122 
DISL,ioos:station:DISL:MHPA:1,2014-01-02T04:30:00Z,30.6671,-87.9365,13.08,1111122 
DISL,ioos:station:DISL:MHPA:1,2014-01-02T05:00:00Z,30.6671,-87.9365,12.69,1111122 
DISL,ioos:station:DISL:MHPA:1,2014-01-02T05:30:00Z,30.6671,-87.9365,12.37,1111122 
DISL,ioos:station:DISL:MHPA:1,2014-01-02T06:00:00Z,30.6671,-87.9365,12.36,1111122 
DISL,ioos:station:DISL:MHPA:1,2014-01-02T06:30:00Z,30.6671,-87.9365,12.44,1111122 
DISL,ioos:station:DISL:MHPA:1,2014-01-02T07:00:00Z,30.6671,-87.9365,12.44,1111122 
DISL,ioos:station:DISL:MHPA:1,2014-01-02T07:30:00Z,30.6671,-87.9365,12.55,1111122 
DISL,ioos:station:DISL:MHPA:1,2014-01-02T08:00:00Z,30.6671,-87.9365,12.74,1111122 
DISL,ioos:station:DISL:MHPA:1,2014-01-02T08:30:00Z,30.6671,-87.9365,12.74,1111122 
DISL,ioos:station:DISL:MHPA:1,2014-01-02T09:00:00Z,30.6671,-87.9365,12.94,1111122 
DISL,ioos:station:DISL:MHPA:1,2014-01-02T09:30:00Z,30.6671,-87.9365,12.89,1111122 
DISL,ioos:station:DISL:MHPA:1,2014-01-02T10:00:00Z,30.6671,-87.9365,13.06,1111122 
DISL,ioos:station:DISL:MHPA:1,2014-01-02T10:30:00Z,30.6671,-87.9365,13.07,1111122 
DISL,ioos:station:DISL:MHPA:1,2014-01-02T11:00:00Z,30.6671,-87.9365,13.24,1111122 
DISL,ioos:station:DISL:MHPA:1,2014-01-02T11:30:00Z,30.6671,-87.9365,13.33,1111122 
DISL,ioos:station:DISL:MHPA:1,2014-01-02T12:00:00Z,30.6671,-87.9365,13.34,1111122 
DISL,ioos:station:DISL:MHPA:1,2014-01-02T12:30:00Z,30.6671,-87.9365,13.4,1111122 
DISL,ioos:station:DISL:MHPA:1,2014-01-02T13:00:00Z,30.6671,-87.9365,13.53,1111122 
DISL,ioos:station:DISL:MHPA:1,2014-01-02T13:30:00Z,30.6671,-87.9365,13.46,1111122 
DISL,ioos:station:DISL:MHPA:1,2014-01-02T14:00:00Z,30.6671,-87.9365,12.48,1111122 
DISL,ioos:station:DISL:MHPA:1,2014-01-02T14:30:00Z,30.6671,-87.9365,12.68,1111122 
DISL,ioos:station:DISL:MHPA:1,2014-01-02T15:00:00Z,30.6671,-87.9365,12.92,1111122 
DISL,ioos:station:DISL:MHPA:1,2014-01-02T15:30:00Z,30.6671,-87.9365,13.12,1111122 
DISL,ioos:station:DISL:MHPA:1,2014-01-02T16:00:00Z,30.6671,-87.9365,13.65,1111122 
DISL,ioos:station:DISL:MHPA:1,2014-01-02T16:30:00Z,30.6671,-87.9365,14.09,1111122 
DISL,ioos:station:DISL:MHPA:1,2014-01-02T17:00:00Z,30.6671,-87.9365,14.67,1111122 
DISL,ioos:station:DISL:MHPA:1,2014-01-02T17:30:00Z,30.6671,-87.9365,14.67,1111122 
DISL,ioos:station:DISL:MHPA:1,2014-01-02T18:00:00Z,30.6671,-87.9365,14.61,1111122 
DISL,ioos:station:DISL:MHPA:1,2014-01-02T18:30:00Z,30.6671,-87.9365,14.7,1111122 
DISL,ioos:station:DISL:MHPA:1,2014-01-02T19:00:00Z,30.6671,-87.9365,14.97,1111122 
DISL,ioos:station:DISL:MHPA:1,2014-01-02T19:30:00Z,30.6671,-87.9365,14.9,1111122 
DISL,ioos:station:DISL:MHPA:1,2014-01-02T20:00:00Z,30.6671,-87.9365,14.18,1111122 
DISL,ioos:station:DISL:MHPA:1,2014-01-02T20:30:00Z,30.6671,-87.9365,13.11,1111122 
DISL,ioos:station:DISL:MHPA:1,2014-01-02T21:00:00Z,30.6671,-87.9365,12.29,1111122 
DISL,ioos:station:DISL:MHPA:1,2014-01-02T21:30:00Z,30.6671,-87.9365,11.5,1111122 
DISL,ioos:station:DISL:MHPA:1,2014-01-02T22:00:00Z,30.6671,-87.9365,11.15,1111122 
DISL,ioos:station:DISL:MHPA:1,2014-01-02T22:30:00Z,30.6671,-87.9365,10.04,1111122 
DISL,ioos:station:DISL:MHPA:1,2014-01-02T23:00:00Z,30.6671,-87.9365,9.07,1111122 
DISL,ioos:station:DISL:MHPA:1,2014-01-02T23:30:00Z,30.6671,-87.9365,8.24,1111122 
DISL,ioos:station:DISL:MHPA:1,2014-01-03T00:00:00Z,30.6671,-87.9365,7.73,1111122 
DISL,ioos:station:DISL:MHPA:1,2014-01-03T00:30:00Z,30.6671,-87.9365,7.29,1111122 
DISL,ioos:station:DISL:MHPA:1,2014-01-03T01:00:00Z,30.6671,-87.9365,6.86,1111122 
DISL,ioos:station:DISL:MHPA:1,2014-01-03T01:30:00Z,30.6671,-87.9365,6.223,1111122 
DISL,ioos:station:DISL:MHPA:1,2014-01-03T02:00:00Z,30.6671,-87.9365,5.571,1111122 
DISL,ioos:station:DISL:MHPA:1,2014-01-03T02:30:00Z,30.6671,-87.9365,5.167,1111122 
DISL,ioos:station:DISL:MHPA:1,2014-01-03T03:00:00Z,30.6671,-87.9365,4.716,1111122 
DISL,ioos:station:DISL:MHPA:1,2014-01-03T03:30:00Z,30.6671,-87.9365,4.379,1111122 
DISL,ioos:station:DISL:MHPA:1,2014-01-03T04:00:00Z,30.6671,-87.9365,3.932,1111122 
DISL,ioos:station:DISL:MHPA:1,2014-01-03T04:30:00Z,30.6671,-87.9365,3.492,1111122 
DISL,ioos:station:DISL:MHPA:1,2014-01-03T05:00:00Z,30.6671,-87.9365,3.081,1111122 
DISL,ioos:station:DISL:MHPA:1,2014-01-03T05:30:00Z,30.6671,-87.9365,2.681,1111122 
DISL,ioos:station:DISL:MHPA:1,2014-01-03T06:00:00Z,30.6671,-87.9365,2.245,1111122 
DISL,ioos:station:DISL:MHPA:1,2014-01-03T06:30:00Z,30.6671,-87.9365,1.855,1111122 
DISL,ioos:station:DISL:MHPA:1,2014-01-03T07:00:00Z,30.6671,-87.9365,1.427,1111122 
DISL,ioos:station:DISL:MHPA:1,2014-01-03T07:30:00Z,30.6671,-87.9365,1.048,1111122 
DISL,ioos:station:DISL:MHPA:1,2014-01-03T08:00:00Z,30.6671,-87.9365,0.753,1111122 
DISL,ioos:station:DISL:MHPA:1,2014-01-03T08:30:00Z,30.6671,-87.9365,0.365,1111122 
DISL,ioos:station:DISL:MHPA:1,2014-01-03T09:00:00Z,30.6671,-87.9365,0.023,1111122 
DISL,ioos:station:DISL:MHPA:1,2014-01-03T16:00:00Z,30.6671,-87.9365,0.48,1111122 
DISL,ioos:station:DISL:MHPA:1,2014-01-03T16:30:00Z,30.6671,-87.9365,1.143,1111122 
DISL,ioos:station:DISL:MHPA:1,2014-01-03T17:00:00Z,30.6671,-87.9365,1.752,1111122 
DISL,ioos:station:DISL:MHPA:1,2014-01-03T17:30:00Z,30.6671,-87.9365,2.218,1111122 
DISL,ioos:station:DISL:MHPA:1,2014-01-03T18:00:00Z,30.6671,-87.9365,3.208,1111122 
DISL,ioos:station:DISL:MHPA:1,2014-01-03T18:30:00Z,30.6671,-87.9365,3.703,1111122 
DISL,ioos:station:DISL:MHPA:1,2014-01-03T19:00:00Z,30.6671,-87.9365,4.46,1111122 
DISL,ioos:station:DISL:MHPA:1,2014-01-03T19:30:00Z,30.6671,-87.9365,5.272,1111122 
DISL,ioos:station:DISL:MHPA:1,2014-01-03T20:00:00Z,30.6671,-87.9365,5.6,1111122 
DISL,ioos:station:DISL:MHPA:1,2014-01-03T20:30:00Z,30.6671,-87.9365,6.109,1111122 
DISL,ioos:station:DISL:MHPA:1,2014-01-03T21:00:00Z,30.6671,-87.9365,6.206,1111122 
DISL,ioos:station:DISL:MHPA:1,2014-01-03T21:30:00Z,30.6671,-87.9365,6.456,1111122 
DISL,ioos:station:DISL:MHPA:1,2014-01-03T22:00:00Z,30.6671,-87.9365,6.149,1111122 
DISL,ioos:station:DISL:MHPA:1,2014-01-03T22:30:00Z,30.6671,-87.9365,5.746,1111122 
DISL,ioos:station:DISL:MHPA:1,2014-01-03T23:00:00Z,30.6671,-87.9365,4.701,1111122 
DISL,ioos:station:DISL:MHPA:1,2014-01-03T23:30:00Z,30.6671,-87.9365,3.764,1111122 
DISL,ioos:station:DISL:MHPA:1,2014-01-04T00:00:00Z,30.6671,-87.9365,3.495,1111122 
DISL,ioos:station:DISL:MHPA:1,2014-01-04T00:30:00Z,30.6671,-87.9365,3.148,1111122 
DISL,ioos:station:DISL:MHPA:1,2014-01-04T01:00:00Z,30.6671,-87.9365,3.176,1111122 
DISL,ioos:station:DISL:MHPA:1,2014-01-04T01:30:00Z,30.6671,-87.9365,2.301,1111122 
DISL,ioos:station:DISL:MHPA:1,2014-01-04T02:00:00Z,30.6671,-87.9365,1.864,1111122 
DISL,ioos:station:DISL:MHPA:1,2014-01-04T02:30:00Z,30.6671,-87.9365,1.389,1111122 
DISL,ioos:station:DISL:MHPA:1,2014-01-04T03:00:00Z,30.6671,-87.9365,1.218,1111122 
DISL,ioos:station:DISL:MHPA:1,2014-01-04T03:30:00Z,30.6671,-87.9365,1.142,1111122 
DISL,ioos:station:DISL:MHPA:1,2014-01-04T04:00:00Z,30.6671,-87.9365,0.895,1111122 
DISL,ioos:station:DISL:MHPA:1,2014-01-04T04:30:00Z,30.6671,-87.9365,0.886,1111122 
DISL,ioos:station:DISL:MHPA:1,2014-01-04T05:00:00Z,30.6671,-87.9365,0.819,1111122 
DISL,ioos:station:DISL:MHPA:1,2014-01-04T05:30:00Z,30.6671,-87.9365,0.753,1111122 
DISL,ioos:station:DISL:MHPA:1,2014-01-04T06:00:00Z,30.6671,-87.9365,0.506,1111122 
DISL,ioos:station:DISL:MHPA:1,2014-01-04T06:30:00Z,30.6671,-87.9365,0.26,1111122 
DISL,ioos:station:DISL:MHPA:1,2014-01-04T07:00:00Z,30.6671,-87.9365,0.364,1111122 
DISL,ioos:station:DISL:MHPA:1,2014-01-04T07:30:00Z,30.6671,-87.9365,0.904,1111122 
DISL,ioos:station:DISL:MHPA:1,2014-01-04T08:00:00Z,30.6671,-87.9365,0.98,1111122 
DISL,ioos:station:DISL:MHPA:1,2014-01-04T08:30:00Z,30.6671,-87.9365,0.81,1111122 
DISL,ioos:station:DISL:MHPA:1,2014-01-04T09:00:00Z,30.6671,-87.9365,1.037,1111122 
DISL,ioos:station:DISL:MHPA:1,2014-01-04T09:30:00Z,30.6671,-87.9365,1.341,1111122 
DISL,ioos:station:DISL:MHPA:1,2014-01-04T10:00:00Z,30.6671,-87.9365,1.427,1111122 
DISL,ioos:station:DISL:MHPA:1,2014-01-04T10:30:00Z,30.6671,-87.9365,1.616,1111122 
DISL,ioos:station:DISL:MHPA:1,2014-01-04T11:00:00Z,30.6671,-87.9365,1.607,1111122 
DISL,ioos:station:DISL:MHPA:1,2014-01-04T11:30:00Z,30.6671,-87.9365,1.664,1111122 
DISL,ioos:station:DISL:MHPA:1,2014-01-04T12:00:00Z,30.6671,-87.9365,1.645,1111122 
DISL,ioos:station:DISL:MHPA:1,2014-01-04T12:30:00Z,30.6671,-87.9365,1.958,1111122 
DISL,ioos:station:DISL:MHPA:1,2014-01-04T13:00:00Z,30.6671,-87.9365,2.367,1111122 
DISL,ioos:station:DISL:MHPA:1,2014-01-04T13:30:00Z,30.6671,-87.9365,3.013,1111122 
DISL,ioos:station:DISL:MHPA:1,2014-01-04T14:00:00Z,30.6671,-87.9365,3.186,1111122 
DISL,ioos:station:DISL:MHPA:1,2014-01-04T14:30:00Z,30.6671,-87.9365,4.291,1111122 
DISL,ioos:station:DISL:MHPA:1,2014-01-04T15:00:00Z,30.6671,-87.9365,5.45,1111122 
DISL,ioos:station:DISL:MHPA:1,2014-01-04T15:30:00Z,30.6671,-87.9365,7.07,1111122 
DISL,ioos:station:DISL:MHPA:1,2014-01-04T16:00:00Z,30.6671,-87.9365,8.71,1111122 
DISL,ioos:station:DISL:MHPA:1,2014-01-04T16:30:00Z,30.6671,-87.9365,9.78,1111122 
DISL,ioos:station:DISL:MHPA:1,2014-01-04T17:00:00Z,30.6671,-87.9365,10.55,1111122 
DISL,ioos:station:DISL:MHPA:1,2014-01-04T17:30:00Z,30.6671,-87.9365,11.77,1111122 
DISL,ioos:station:DISL:MHPA:1,2014-01-04T18:00:00Z,30.6671,-87.9365,12.7,1111122 
DISL,ioos:station:DISL:MHPA:1,2014-01-04T18:30:00Z,30.6671,-87.9365,13.16,1111122 
DISL,ioos:station:DISL:MHPA:1,2014-01-04T19:00:00Z,30.6671,-87.9365,13.67,1111122 
DISL,ioos:station:DISL:MHPA:1,2014-01-04T19:30:00Z,30.6671,-87.9365,14.21,1111122 
DISL,ioos:station:DISL:MHPA:1,2014-01-04T20:00:00Z,30.6671,-87.9365,14.86,1111122 
DISL,ioos:station:DISL:MHPA:1,2014-01-04T20:30:00Z,30.6671,-87.9365,15.07,1111122 
DISL,ioos:station:DISL:MHPA:1,2014-01-04T21:00:00Z,30.6671,-87.9365,15.34,1111122 
DISL,ioos:station:DISL:MHPA:1,2014-01-04T21:30:00Z,30.6671,-87.9365,15.17,1111122 
DISL,ioos:station:DISL:MHPA:1,2014-01-04T22:00:00Z,30.6671,-87.9365,14.33,1111122 
DISL,ioos:station:DISL:MHPA:1,2014-01-04T22:30:00Z,30.6671,-87.9365,13.82,1111122 
DISL,ioos:station:DISL:MHPA:1,2014-01-04T23:00:00Z,30.6671,-87.9365,13.05,1111122 
DISL,ioos:station:DISL:MHPA:1,2014-01-04T23:30:00Z,30.6671,-87.9365,12.42,1111122 
DISL,ioos:station:DISL:MHPA:1,2014-01-05T00:00:00Z,30.6671,-87.9365,12.26,1111122 
DISL,ioos:station:DISL:MHPA:1,2014-01-05T00:30:00Z,30.6671,-87.9365,12.14,1111122 
DISL,ioos:station:DISL:MHPA:1,2014-01-05T01:00:00Z,30.6671,-87.9365,11.91,1111122 
DISL,ioos:station:DISL:MHPA:1,2014-01-05T01:30:00Z,30.6671,-87.9365,11.38,1111122 
DISL,ioos:station:DISL:MHPA:1,2014-01-05T02:00:00Z,30.6671,-87.9365,10.8,1111122 
DISL,ioos:station:DISL:MHPA:1,2014-01-05T02:30:00Z,30.6671,-87.9365,10.63,1111122 
DISL,ioos:station:DISL:MHPA:1,2014-01-05T03:00:00Z,30.6671,-87.9365,10.29,1111122 
DISL,ioos:station:DISL:MHPA:1,2014-01-05T03:30:00Z,30.6671,-87.9365,9.81,1111122 
DISL,ioos:station:DISL:MHPA:1,2014-01-05T04:00:00Z,30.6671,-87.9365,9.48,1111122 
DISL,ioos:station:DISL:MHPA:1,2014-01-05T04:30:00Z,30.6671,-87.9365,9.3,1111122 
DISL,ioos:station:DISL:MHPA:1,2014-01-05T05:00:00Z,30.6671,-87.9365,9.2,1111122 
DISL,ioos:station:DISL:MHPA:1,2014-01-05T05:30:00Z,30.6671,-87.9365,9.37,1111122 
DISL,ioos:station:DISL:MHPA:1,2014-01-05T06:00:00Z,30.6671,-87.9365,9.19,1111122 
DISL,ioos:station:DISL:MHPA:1,2014-01-05T06:30:00Z,30.6671,-87.9365,9.37,1111122 
DISL,ioos:station:DISL:MHPA:1,2014-01-05T07:00:00Z,30.6671,-87.9365,9.61,1111122 
DISL,ioos:station:DISL:MHPA:1,2014-01-05T07:30:00Z,30.6671,-87.9365,9.61,1111122 
DISL,ioos:station:DISL:MHPA:1,2014-01-05T08:00:00Z,30.6671,-87.9365,9.31,1111122 
DISL,ioos:station:DISL:MHPA:1,2014-01-05T08:30:00Z,30.6671,-87.9365,9.17,1111122 
DISL,ioos:station:DISL:MHPA:1,2014-01-05T09:00:00Z,30.6671,-87.9365,9.09,1111122 
DISL,ioos:station:DISL:MHPA:1,2014-01-05T09:30:00Z,30.6671,-87.9365,9.08,1111122 
DISL,ioos:station:DISL:MHPA:1,2014-01-05T10:00:00Z,30.6671,-87.9365,9.44,1111122 
DISL,ioos:station:DISL:MHPA:1,2014-01-05T10:30:00Z,30.6671,-87.9365,9.87,1111122 
DISL,ioos:station:DISL:MHPA:1,2014-01-05T11:00:00Z,30.6671,-87.9365,10.3,1111122 
DISL,ioos:station:DISL:MHPA:1,2014-01-05T11:30:00Z,30.6671,-87.9365,10.38,1111122 
DISL,ioos:station:DISL:MHPA:1,2014-01-05T12:00:00Z,30.6671,-87.9365,10.35,1111122 
DISL,ioos:station:DISL:MHPA:1,2014-01-05T12:30:00Z,30.6671,-87.9365,10.4,1111122 
DISL,ioos:station:DISL:MHPA:1,2014-01-05T13:00:00Z,30.6671,-87.9365,10.52,1111122 
DISL,ioos:station:DISL:MHPA:1,2014-01-05T13:30:00Z,30.6671,-87.9365,10.79,1111122 
DISL,ioos:station:DISL:MHPA:1,2014-01-05T14:00:00Z,30.6671,-87.9365,11.0,1111122 
DISL,ioos:station:DISL:MHPA:1,2014-01-05T14:30:00Z,30.6671,-87.9365,11.46,1111122 
DISL,ioos:station:DISL:MHPA:1,2014-01-05T15:00:00Z,30.6671,-87.9365,12.82,1111122 
DISL,ioos:station:DISL:MHPA:1,2014-01-05T15:30:00Z,30.6671,-87.9365,13.71,1111122 
DISL,ioos:station:DISL:MHPA:1,2014-01-05T16:00:00Z,30.6671,-87.9365,14.47,1111122 
DISL,ioos:station:DISL:MHPA:1,2014-01-05T16:30:00Z,30.6671,-87.9365,12.29,1111122 
DISL,ioos:station:DISL:MHPA:1,2014-01-05T17:00:00Z,30.6671,-87.9365,12.34,1111122 
DISL,ioos:station:DISL:MHPA:1,2014-01-05T17:30:00Z,30.6671,-87.9365,12.76,1111122 
DISL,ioos:station:DISL:MHPA:1,2014-01-05T18:00:00Z,30.6671,-87.9365,13.21,1111122 
DISL,ioos:station:DISL:MHPA:1,2014-01-05T18:30:00Z,30.6671,-87.9365,12.34,1111122 
DISL,ioos:station:DISL:MHPA:1,2014-01-05T19:00:00Z,30.6671,-87.9365,12.93,1111122 
DISL,ioos:station:DISL:MHPA:1,2014-01-05T19:30:00Z,30.6671,-87.9365,13.31,1111122 
DISL,ioos:station:DISL:MHPA:1,2014-01-05T20:00:00Z,30.6671,-87.9365,13.67,1111122 
DISL,ioos:station:DISL:MHPA:1,2014-01-05T20:30:00Z,30.6671,-87.9365,15.23,1111122 
DISL,ioos:station:DISL:MHPA:1,2014-01-05T21:00:00Z,30.6671,-87.9365,15.97,1111122 
DISL,ioos:station:DISL:MHPA:1,2014-01-05T21:30:00Z,30.6671,-87.9365,16.01,1111122 
DISL,ioos:station:DISL:MHPA:1,2014-01-05T22:00:00Z,30.6671,-87.9365,16.11,1111122 
DISL,ioos:station:DISL:MHPA:1,2014-01-05T22:30:00Z,30.6671,-87.9365,16.29,1111122 
DISL,ioos:station:DISL:MHPA:1,2014-01-05T23:00:00Z,30.6671,-87.9365,16.17,1111122 
DISL,ioos:station:DISL:MHPA:1,2014-01-05T23:30:00Z,30.6671,-87.9365,16.31,1111122 
DISL,ioos:station:DISL:MHPA:1,2014-01-06T00:00:00Z,30.6671,-87.9365,15.85,1111122 
DISL,ioos:station:DISL:MHPA:1,2014-01-06T00:30:00Z,30.6671,-87.9365,16.2,1111122 
DISL,ioos:station:DISL:MHPA:1,2014-01-06T01:00:00Z,30.6671,-87.9365,16.02,1111122 
DISL,ioos:station:DISL:MHPA:1,2014-01-06T01:30:00Z,30.6671,-87.9365,14.95,1111122 
DISL,ioos:station:DISL:MHPA:1,2014-01-06T02:00:00Z,30.6671,-87.9365,13.3,1111122 
DISL,ioos:station:DISL:MHPA:1,2014-01-06T02:30:00Z,30.6671,-87.9365,13.15,1111122 
DISL,ioos:station:DISL:MHPA:1,2014-01-06T03:00:00Z,30.6671,-87.9365,16.18,1111122 
DISL,ioos:station:DISL:MHPA:1,2014-01-06T03:30:00Z,30.6671,-87.9365,13.75,1111122 
DISL,ioos:station:DISL:MHPA:1,2014-01-06T04:00:00Z,30.6671,-87.9365,11.49,1111122 
DISL,ioos:station:DISL:MHPA:1,2014-01-06T04:30:00Z,30.6671,-87.9365,10.79,1111122 
DISL,ioos:station:DISL:MHPA:1,2014-01-06T05:00:00Z,30.6671,-87.9365,9.92,1111122 
DISL,ioos:station:DISL:MHPA:1,2014-01-06T05:30:00Z,30.6671,-87.9365,8.52,1111122 
DISL,ioos:station:DISL:MHPA:1,2014-01-06T06:00:00Z,30.6671,-87.9365,7.71,1111122 
DISL,ioos:station:DISL:MHPA:1,2014-01-06T06:30:00Z,30.6671,-87.9365,6.525,1111122 
DISL,ioos:station:DISL:MHPA:1,2014-01-06T07:00:00Z,30.6671,-87.9365,5.151,1111122 
DISL,ioos:station:DISL:MHPA:1,2014-01-06T07:30:00Z,30.6671,-87.9365,3.507,1111122 
DISL,ioos:station:DISL:MHPA:1,2014-01-06T08:00:00Z,30.6671,-87.9365,2.457,1111122 
DISL,ioos:station:DISL:MHPA:1,2014-01-06T08:30:00Z,30.6671,-87.9365,2.028,1111122 
DISL,ioos:station:DISL:MHPA:1,2014-01-06T09:00:00Z,30.6671,-87.9365,1.741,1111122 
DISL,ioos:station:DISL:MHPA:1,2014-01-06T09:30:00Z,30.6671,-87.9365,1.646,1111122 
DISL,ioos:station:DISL:MHPA:1,2014-01-06T10:00:00Z,30.6671,-87.9365,0.593,1111122 
DISL,ioos:station:DISL:MHPA:1,2014-01-06T10:30:00Z,30.6671,-87.9365,0.536,1111122 
DISL,ioos:station:DISL:MHPA:1,2014-01-06T11:00:00Z,30.6671,-87.9365,0.412,1111122 
DISL,ioos:station:DISL:MHPA:1,2014-01-06T11:30:00Z,30.6671,-87.9365,0.09,1111122 
DISL,ioos:station:DISL:MHPA:1,2014-01-06T16:00:00Z,30.6671,-87.9365,0.469,1111122 
DISL,ioos:station:DISL:MHPA:1,2014-01-06T16:30:00Z,30.6671,-87.9365,0.746,1111122 
DISL,ioos:station:DISL:MHPA:1,2014-01-06T17:00:00Z,30.6671,-87.9365,0.555,1111122 
DISL,ioos:station:DISL:MHPA:1,2014-01-06T17:30:00Z,30.6671,-87.9365,0.917,1111122 
DISL,ioos:station:DISL:MHPA:1,2014-01-06T18:00:00Z,30.6671,-87.9365,0.993,1111122 
DISL,ioos:station:DISL:MHPA:1,2014-01-06T18:30:00Z,30.6671,-87.9365,0.974,1111122 
DISL,ioos:station:DISL:MHPA:1,2014-01-06T19:00:00Z,30.6671,-87.9365,1.384,1111122 
DISL,ioos:station:DISL:MHPA:1,2014-01-06T19:30:00Z,30.6671,-87.9365,1.515,1111122 
DISL,ioos:station:DISL:MHPA:1,2014-01-06T20:00:00Z,30.6671,-87.9365,1.867,1111122 
DISL,ioos:station:DISL:MHPA:1,2014-01-06T20:30:00Z,30.6671,-87.9365,1.954,1111122 
DISL,ioos:station:DISL:MHPA:1,2014-01-06T21:00:00Z,30.6671,-87.9365,1.262,1111122 
DISL,ioos:station:DISL:MHPA:1,2014-01-06T21:30:00Z,30.6671,-87.9365,0.908,1111122 
DISL,ioos:station:DISL:MHPA:1,2014-01-06T22:00:00Z,30.6671,-87.9365,0.872,1111122 
DISL,ioos:station:DISL:MHPA:1,2014-01-06T22:30:00Z,30.6671,-87.9365,0.091,1111122 
DISL,ioos:station:DISL:MHPA:1,2014-01-07T21:30:00Z,30.6671,-87.9365,0.063,1111122 
DISL,ioos:station:DISL:MHPA:1,2014-01-08T16:00:00Z,30.6671,-87.9365,0.592,1111122 
DISL,ioos:station:DISL:MHPA:1,2014-01-08T16:30:00Z,30.6671,-87.9365,1.589,1111122 
DISL,ioos:station:DISL:MHPA:1,2014-01-08T17:00:00Z,30.6671,-87.9365,2.561,1111122 
DISL,ioos:station:DISL:MHPA:1,2014-01-08T17:30:00Z,30.6671,-87.9365,4.02,1111122 
DISL,ioos:station:DISL:MHPA:1,2014-01-08T18:00:00Z,30.6671,-87.9365,4.297,1111122 
DISL,ioos:station:DISL:MHPA:1,2014-01-08T18:30:00Z,30.6671,-87.9365,3.878,1111122 
DISL,ioos:station:DISL:MHPA:1,2014-01-08T19:00:00Z,30.6671,-87.9365,4.747,1111122 
DISL,ioos:station:DISL:MHPA:1,2014-01-08T19:30:00Z,30.6671,-87.9365,5.782,1111122 
DISL,ioos:station:DISL:MHPA:1,2014-01-08T20:00:00Z,30.6671,-87.9365,6.252,1111122 
DISL,ioos:station:DISL:MHPA:1,2014-01-08T20:30:00Z,30.6671,-87.9365,6.503,1111122 
DISL,ioos:station:DISL:MHPA:1,2014-01-08T21:00:00Z,30.6671,-87.9365,6.976,1111122 
DISL,ioos:station:DISL:MHPA:1,2014-01-08T21:30:00Z,30.6671,-87.9365,7.39,1111122 
DISL,ioos:station:DISL:MHPA:1,2014-01-08T22:00:00Z,30.6671,-87.9365,7.62,1111122 
DISL,ioos:station:DISL:MHPA:1,2014-01-08T22:30:00Z,30.6671,-87.9365,7.56,1111122 
DISL,ioos:station:DISL:MHPA:1,2014-01-08T23:00:00Z,30.6671,-87.9365,6.91,1111122 
DISL,ioos:station:DISL:MHPA:1,2014-01-08T23:30:00Z,30.6671,-87.9365,5.956,1111122 
DISL,ioos:station:DISL:MHPA:1,2014-01-09T00:00:00Z,30.6671,-87.9365,4.966,1111122 
DISL,ioos:station:DISL:MHPA:1,2014-01-09T00:30:00Z,30.6671,-87.9365,5.135,1111122 
DISL,ioos:station:DISL:MHPA:1,2014-01-09T01:00:00Z,30.6671,-87.9365,4.779,1111122 
DISL,ioos:station:DISL:MHPA:1,2014-01-09T01:30:00Z,30.6671,-87.9365,4.759,1111122 
DISL,ioos:station:DISL:MHPA:1,2014-01-09T02:00:00Z,30.6671,-87.9365,4.062,1111122 
DISL,ioos:station:DISL:MHPA:1,2014-01-09T02:30:00Z,30.6671,-87.9365,3.556,1111122 
DISL,ioos:station:DISL:MHPA:1,2014-01-09T03:00:00Z,30.6671,-87.9365,2.946,1111122 
DISL,ioos:station:DISL:MHPA:1,2014-01-09T03:30:00Z,30.6671,-87.9365,2.995,1111122 
DISL,ioos:station:DISL:MHPA:1,2014-01-09T04:00:00Z,30.6671,-87.9365,3.47,1111122 
DISL,ioos:station:DISL:MHPA:1,2014-01-09T04:30:00Z,30.6671,-87.9365,3.574,1111122 
DISL,ioos:station:DISL:MHPA:1,2014-01-09T05:00:00Z,30.6671,-87.9365,4.099,1111122 
DISL,ioos:station:DISL:MHPA:1,2014-01-09T05:30:00Z,30.6671,-87.9365,3.908,1111122 
DISL,ioos:station:DISL:MHPA:1,2014-01-09T06:00:00Z,30.6671,-87.9365,4.424,1111122 
DISL,ioos:station:DISL:MHPA:1,2014-01-09T06:30:00Z,30.6671,-87.9365,2.965,1111122 
DISL,ioos:station:DISL:MHPA:1,2014-01-09T07:00:00Z,30.6671,-87.9365,2.519,1111122 
DISL,ioos:station:DISL:MHPA:1,2014-01-09T07:30:00Z,30.6671,-87.9365,3.546,1111122 
DISL,ioos:station:DISL:MHPA:1,2014-01-09T08:00:00Z,30.6671,-87.9365,4.004,1111122 
DISL,ioos:station:DISL:MHPA:1,2014-01-09T08:30:00Z,30.6671,-87.9365,3.213,1111122 
DISL,ioos:station:DISL:MHPA:1,2014-01-09T09:00:00Z,30.6671,-87.9365,2.48,1111122 
DISL,ioos:station:DISL:MHPA:1,2014-01-09T09:30:00Z,30.6671,-87.9365,1.209,1111122 